,,Stat1,,Stat2,,Stat3,,Stat4,,Wind1,,Wind1,
time,status,PR1M_SUM,status,RH1M_AVG,status,SR1M_AVG,status,TA1M_AVG,status,W1dAve1m,status,W1sAve1m,
2000-02-12, 00:00:00,VALID,0,VALID,88.9856,VALID,0,VALID,17.9777,VALID,186,VALID,1.54147,
2000-02-12, 00:01:00,VALID,0,VALID,88.9004,VALID,0.0339617,VALID,18.0196,VALID,190,VALID,1.48269,
2000-02-12, 00:02:00,VALID,0,VALID,88.6614,VALID,0.0169808,VALID,18.0386,VALID,195,VALID,1.54375,
2000-02-12, 00:03:00,VALID,0,VALID,88.5507,VALID,0,VALID,18.0939,VALID,185,VALID,1.38301,
2000-02-12, 00:04:00,VALID,0,VALID,88.5622,VALID,0.0339617,VALID,18.1066,VALID,181,VALID,1.15273,
2000-02-12, 00:05:00,VALID,0,VALID,88.5367,VALID,0.0339617,VALID,18.1031,VALID,171,VALID,1.11801,
2000-02-12, 00:06:00,VALID,0,VALID,88.8038,VALID,0,VALID,18.0969,VALID,168,VALID,1.05008,
2000-02-12, 00:07:00,VALID,0,VALID,88.7211,VALID,0.0339617,VALID,18.0672,VALID,167,VALID,1.13261,
2000-02-12, 00:08:01,VALID,0,VALID,88.3498,VALID,0.0339617,VALID,18.0676,VALID,169,VALID,1.1889,
2000-02-12, 00:09:00,VALID,0,VALID,88.1044,VALID,-0.0339617,VALID,18.1036,VALID,176,VALID,1.02637,
2000-02-12, 00:10:00,VALID,0,VALID,87.8348,VALID,-0.0849042,VALID,18.1527,VALID,185,VALID,1.02539,
2000-02-12, 00:11:00,VALID,0,VALID,87.6619,VALID,-0.0849042,VALID,18.2079,VALID,185,VALID,0.860403,
2000-02-12, 00:12:00,VALID,0,VALID,87.6453,VALID,-0.0849042,VALID,18.2305,VALID,190,VALID,0.854167,
2000-02-12, 00:13:00,VALID,0,VALID,87.3249,VALID,-0.0679233,VALID,18.2531,VALID,192,VALID,0.995477,
2000-02-12, 00:14:00,VALID,0,VALID,87.2321,VALID,-0.0679233,VALID,18.2754,VALID,199,VALID,1.1238,
2000-02-12, 00:15:00,VALID,0,VALID,87.138,VALID,-0.101885,VALID,18.3174,VALID,193,VALID,1.10059,
2000-02-12, 00:16:00,VALID,0,VALID,87.1418,VALID,-0.0679233,VALID,18.3435,VALID,183,VALID,0.859809,
2000-02-12, 00:17:00,VALID,0,VALID,88.1031,VALID,-0.0679233,VALID,18.3465,VALID,160,VALID,0.65111,
2000-02-12, 00:18:00,VALID,0,VALID,88.2163,VALID,-0.101885,VALID,18.2688,VALID,157,VALID,0.642628,
2000-02-12, 00:19:01,VALID,0,VALID,87.859,VALID,-0.0849042,VALID,18.2076,VALID,162,VALID,0.740954,
2000-02-12, 00:20:00,VALID,0,VALID,88.037,VALID,-0.0849042,VALID,18.2081,VALID,185,VALID,0.566306,
2000-02-12, 00:21:00,VALID,0,VALID,88.2417,VALID,-0.0679233,VALID,18.1979,VALID,198,VALID,0.648047,
2000-02-12, 00:22:00,VALID,0,VALID,88.1298,VALID,-0.0849042,VALID,18.1848,VALID,205,VALID,0.853082,
2000-02-12, 00:23:00,VALID,0,VALID,88.1464,VALID,-0.101885,VALID,18.1818,VALID,205,VALID,0.812089,
2000-02-12, 00:24:00,VALID,0,VALID,88.1514,VALID,-0.0849042,VALID,18.1885,VALID,192,VALID,0.764423,
2000-02-12, 00:25:00,VALID,0,VALID,88.4172,VALID,-0.0509425,VALID,18.1816,VALID,190,VALID,0.68051,
2000-02-12, 00:26:00,VALID,0,VALID,88.3371,VALID,-0.101885,VALID,18.1592,VALID,183,VALID,0.861779,
2000-02-12, 00:27:00,VALID,0,VALID,88.4732,VALID,-0.0849042,VALID,18.1366,VALID,181,VALID,0.757031,
2000-02-12, 00:28:00,VALID,0,VALID,88.4426,VALID,-0.0849042,VALID,18.1071,VALID,188,VALID,0.739366,
2000-02-12, 00:29:00,VALID,0,VALID,88.5355,VALID,-0.0339617,VALID,18.1038,VALID,184,VALID,0.761102,
2000-02-12, 00:30:01,VALID,0,VALID,88.5444,VALID,-0.0169808,VALID,18.0976,VALID,182,VALID,0.766426,
2000-02-12, 00:31:00,VALID,0,VALID,88.6919,VALID,-0.0849042,VALID,18.0879,VALID,200,VALID,0.797903,
2000-02-12, 00:32:00,VALID,0,VALID,88.9526,VALID,-0.0679233,VALID,18.0978,VALID,207,VALID,0.673077,
2000-02-12, 00:33:00,VALID,0,VALID,88.95,VALID,-0.0849042,VALID,18.075,VALID,209,VALID,0.934961,
2000-02-12, 00:34:00,VALID,0,VALID,88.7644,VALID,-0.0849042,VALID,18.0914,VALID,215,VALID,0.879774,
2000-02-12, 00:35:00,VALID,0,VALID,88.8572,VALID,-0.101885,VALID,18.0978,VALID,214,VALID,0.841488,
2000-02-12, 00:36:00,VALID,0,VALID,88.9894,VALID,-0.0679233,VALID,18.0911,VALID,216,VALID,0.872196,
2000-02-12, 00:37:00,VALID,0,VALID,89.0708,VALID,-0.0679233,VALID,18.0981,VALID,221,VALID,0.749589,
2000-02-12, 00:38:00,VALID,0,VALID,89.671,VALID,-0.0509425,VALID,18.0941,VALID,204,VALID,0.33113,
2000-02-12, 00:39:00,VALID,0,VALID,89.9419,VALID,-0.0849042,VALID,18.0847,VALID,197,VALID,0.117773,
2000-02-12, 00:40:01,VALID,0,VALID,90.0805,VALID,-0.0679233,VALID,18.0785,VALID,197,VALID,0,
2000-02-12, 00:41:01,VALID,0,VALID,89.8414,VALID,-0.0679233,VALID,18.0752,VALID,197,VALID,0,
2000-02-12, 00:42:00,VALID,0,VALID,89.7168,VALID,-0.0679233,VALID,18.0591,VALID,197,VALID,0,
2000-02-12, 00:43:00,VALID,0,VALID,90.256,VALID,-0.101885,VALID,18.0173,VALID,197,VALID,0.284951,
2000-02-12, 00:44:00,VALID,0,VALID,90.6578,VALID,-0.0679233,VALID,17.9813,VALID,198,VALID,0.301683,
2000-02-12, 00:45:00,VALID,0,VALID,90.6234,VALID,-0.0679233,VALID,17.9555,VALID,209,VALID,0.419141,
2000-02-12, 00:46:00,VALID,0,VALID,90.5955,VALID,-0.0849042,VALID,17.9394,VALID,220,VALID,0.813368,
2000-02-12, 00:47:00,VALID,0,VALID,90.3539,VALID,-0.101885,VALID,17.9396,VALID,211,VALID,0.898438,
2000-02-12, 00:48:00,VALID,0,VALID,90.1326,VALID,-0.0509425,VALID,17.9682,VALID,217,VALID,0.606571,
2000-02-12, 00:49:00,VALID,0,VALID,89.4676,VALID,-0.0679233,VALID,18.0173,VALID,219,VALID,0.931538,
2000-02-12, 00:50:00,VALID,0,VALID,88.8915,VALID,-0.101885,VALID,18.0752,VALID,205,VALID,0.657452,
2000-02-12, 00:51:00,VALID,0,VALID,88.1858,VALID,-0.0849042,VALID,18.159,VALID,209,VALID,0.61582,
2000-02-12, 00:52:01,VALID,0,VALID,87.873,VALID,-0.0679233,VALID,18.2459,VALID,210,VALID,0.46224,
2000-02-12, 00:53:00,VALID,0,VALID,87.4533,VALID,-0.0679233,VALID,18.3144,VALID,228,VALID,0.638569,
2000-02-12, 00:54:00,VALID,0,VALID,87.3974,VALID,0.0169808,VALID,18.355,VALID,206,VALID,0.669071,
2000-02-12, 00:55:00,VALID,0,VALID,87.6886,VALID,0.0339617,VALID,18.3968,VALID,205,VALID,0.538446,
2000-02-12, 00:56:00,VALID,0,VALID,87.8997,VALID,0.0169808,VALID,18.3836,VALID,217,VALID,0.594151,
2000-02-12, 00:57:00,VALID,0,VALID,87.8145,VALID,0.0339617,VALID,18.3645,VALID,219,VALID,0.761719,
2000-02-12, 00:58:00,VALID,0,VALID,87.5589,VALID,0.0339617,VALID,18.3513,VALID,218,VALID,0.97895,
2000-02-12, 00:59:00,VALID,0,VALID,87.3859,VALID,-0.0169808,VALID,18.3647,VALID,210,VALID,0.905633,
2000-02-12, 01:00:00,VALID,0,VALID,87.5779,VALID,0.0169808,VALID,18.3613,VALID,207,VALID,0.738381,
2000-02-12, 01:01:00,VALID,0,VALID,87.4762,VALID,0,VALID,18.3776,VALID,195,VALID,1.10444,
2000-02-12, 01:02:00,VALID,0,VALID,87.2283,VALID,0,VALID,18.3809,VALID,188,VALID,1.0004,
2000-02-12, 01:03:00,VALID,0,VALID,86.8837,VALID,0.0169808,VALID,18.3873,VALID,190,VALID,1.13867,
2000-02-12, 01:04:00,VALID,0,VALID,86.8252,VALID,0.0169808,VALID,18.403,VALID,195,VALID,1.01997,
2000-02-12, 01:05:00,VALID,0,VALID,86.7489,VALID,0.0339617,VALID,18.4261,VALID,211,VALID,1.12294,
2000-02-12, 01:06:00,VALID,0,VALID,86.2669,VALID,0.0169808,VALID,18.4681,VALID,216,VALID,1.04928,
2000-02-12, 01:07:00,VALID,0,VALID,86.0558,VALID,0,VALID,18.5225,VALID,222,VALID,1.1102,
2000-02-12, 01:08:00,VALID,0,VALID,85.9287,VALID,0.0169808,VALID,18.5786,VALID,224,VALID,0.970553,
2000-02-12, 01:09:00,VALID,0,VALID,85.8142,VALID,-0.0339617,VALID,18.6044,VALID,229,VALID,0.956641,
2000-02-12, 01:10:00,VALID,0,VALID,85.7557,VALID,0,VALID,18.6081,VALID,227,VALID,0.997179,
2000-02-12, 01:11:00,VALID,0,VALID,85.5688,VALID,-0.0509425,VALID,18.621,VALID,228,VALID,1.01357,
2000-02-12, 01:12:00,VALID,0,VALID,85.4925,VALID,-0.0339617,VALID,18.6369,VALID,225,VALID,0.902644,
2000-02-12, 01:13:00,VALID,0,VALID,85.5853,VALID,0,VALID,18.6402,VALID,217,VALID,0.924342,
2000-02-12, 01:14:00,VALID,0,VALID,85.4239,VALID,-0.0339617,VALID,18.6531,VALID,214,VALID,1.13582,
2000-02-12, 01:15:00,VALID,0,VALID,85.3463,VALID,-0.0339617,VALID,18.6561,VALID,205,VALID,0.966797,
2000-02-12, 01:16:00,VALID,0,VALID,85.2738,VALID,-0.0339617,VALID,18.6789,VALID,202,VALID,0.917535,
2000-02-12, 01:17:00,VALID,0,VALID,85.0322,VALID,-0.0509425,VALID,18.6844,VALID,212,VALID,1.09951,
2000-02-12, 01:18:00,VALID,0,VALID,84.8338,VALID,-0.0169808,VALID,18.7338,VALID,213,VALID,1.39643,
2000-02-12, 01:19:00,VALID,0,VALID,84.7219,VALID,-0.0169808,VALID,18.7659,VALID,215,VALID,1.73705,
2000-02-12, 01:20:00,VALID,0,VALID,84.797,VALID,0,VALID,18.7982,VALID,214,VALID,1.88722,
2000-02-12, 01:21:00,VALID,0,VALID,84.9203,VALID,-0.0339617,VALID,18.8017,VALID,214,VALID,1.82734,
2000-02-12, 01:22:00,VALID,0,VALID,85.0843,VALID,-0.0169808,VALID,18.7947,VALID,218,VALID,1.61675,
2000-02-12, 01:23:00,VALID,0,VALID,85.284,VALID,0,VALID,18.7788,VALID,206,VALID,1.25452,
2000-02-12, 01:24:00,VALID,0,VALID,85.6146,VALID,-0.0169808,VALID,18.7433,VALID,211,VALID,1.28085,
2000-02-12, 01:25:00,VALID,0,VALID,85.9465,VALID,0,VALID,18.7108,VALID,213,VALID,1.59704,
2000-02-12, 01:26:00,VALID,0,VALID,85.9923,VALID,0,VALID,18.6655,VALID,215,VALID,1.376,
2000-02-12, 01:27:00,VALID,0,VALID,86.2148,VALID,0,VALID,18.6519,VALID,218,VALID,1.48398,
2000-02-12, 01:28:00,VALID,0,VALID,86.2974,VALID,-0.0339617,VALID,18.633,VALID,212,VALID,1.34136,
2000-02-12, 01:29:00,VALID,0,VALID,86.347,VALID,-0.0339617,VALID,18.6335,VALID,219,VALID,1.26357,
2000-02-12, 01:30:00,VALID,0,VALID,86.3788,VALID,-0.0339617,VALID,18.627,VALID,218,VALID,1.3774,
2000-02-12, 01:31:00,VALID,0,VALID,86.4704,VALID,-0.0339617,VALID,18.6243,VALID,220,VALID,1.31044,
2000-02-12, 01:32:00,VALID,0,VALID,86.4119,VALID,-0.0339617,VALID,18.6109,VALID,216,VALID,1.55809,
2000-02-12, 01:33:00,VALID,0,VALID,86.2568,VALID,-0.0169808,VALID,18.6268,VALID,219,VALID,1.32539,
2000-02-12, 01:34:01,VALID,0,VALID,86.1817,VALID,-0.0509425,VALID,18.6432,VALID,221,VALID,1.32465,
2000-02-12, 01:35:00,VALID,0,VALID,86.1677,VALID,-0.0169808,VALID,18.6628,VALID,218,VALID,1.32627,
2000-02-12, 01:36:00,VALID,0,VALID,86.0202,VALID,-0.0169808,VALID,18.6529,VALID,219,VALID,1.47035,
2000-02-12, 01:37:00,VALID,0,VALID,85.8854,VALID,-0.0679233,VALID,18.6655,VALID,212,VALID,1.29934,
2000-02-12, 01:38:00,VALID,0,VALID,85.5625,VALID,-0.0169808,VALID,18.6812,VALID,222,VALID,1.35417,
2000-02-12, 01:39:00,VALID,0,VALID,85.1848,VALID,-0.0169808,VALID,18.7361,VALID,237,VALID,1.3377,
2000-02-12, 01:40:00,VALID,0,VALID,84.9559,VALID,-0.0169808,VALID,18.798,VALID,229,VALID,1.22504,
2000-02-12, 01:41:00,VALID,0,VALID,84.8567,VALID,-0.0169808,VALID,18.8397,VALID,227,VALID,1.44428,
2000-02-12, 01:42:00,VALID,0,VALID,84.8936,VALID,-0.0339617,VALID,18.8526,VALID,229,VALID,1.58333,
2000-02-12, 01:43:00,VALID,0,VALID,85.0068,VALID,-0.0169808,VALID,18.8561,VALID,230,VALID,1.68832,
2000-02-12, 01:44:00,VALID,0,VALID,85.0055,VALID,-0.0169808,VALID,18.8437,VALID,236,VALID,1.79287,
2000-02-12, 01:45:00,VALID,0,VALID,84.8389,VALID,-0.0339617,VALID,18.8404,VALID,238,VALID,1.7416,
2000-02-12, 01:46:01,VALID,0,VALID,84.9712,VALID,-0.0339617,VALID,18.8529,VALID,227,VALID,1.66732,
2000-02-12, 01:47:00,VALID,0,VALID,84.9508,VALID,-0.0339617,VALID,18.8561,VALID,225,VALID,1.66941,
2000-02-12, 01:48:00,VALID,0,VALID,85.0882,VALID,0,VALID,18.8529,VALID,226,VALID,1.44992,
2000-02-12, 01:49:00,VALID,0,VALID,85.2268,VALID,-0.0339617,VALID,18.8337,VALID,218,VALID,1.52734,
2000-02-12, 01:50:00,VALID,0,VALID,85.4722,VALID,-0.0339617,VALID,18.8106,VALID,222,VALID,1.48337,
2000-02-12, 01:51:00,VALID,0,VALID,85.3577,VALID,-0.0509425,VALID,18.8111,VALID,222,VALID,1.76758,
2000-02-12, 01:52:00,VALID,0,VALID,85.2852,VALID,-0.0339617,VALID,18.8307,VALID,224,VALID,1.20942,
2000-02-12, 01:53:00,VALID,0,VALID,85.0983,VALID,-0.0169808,VALID,18.8626,VALID,212,VALID,1.64227,
2000-02-12, 01:54:00,VALID,0,VALID,84.9788,VALID,-0.0339617,VALID,18.8886,VALID,216,VALID,1.55188,
2000-02-12, 01:55:00,VALID,0,VALID,85.0195,VALID,-0.0169808,VALID,18.914,VALID,209,VALID,1.14165,
2000-02-12, 01:56:00,VALID,0,VALID,85.1632,VALID,-0.0339617,VALID,18.9269,VALID,183,VALID,1.24159,
2000-02-12, 01:57:00,VALID,0,VALID,85.2115,VALID,-0.0509425,VALID,18.9013,VALID,172,VALID,1.34102,
2000-02-12, 01:58:00,VALID,0,VALID,85.3857,VALID,0,VALID,18.8752,VALID,177,VALID,1.27409,
2000-02-12, 01:59:00,VALID,0,VALID,85.1899,VALID,0,VALID,18.8529,VALID,186,VALID,1.52714,
2000-02-12, 02:00:00,VALID,0,VALID,85.2636,VALID,-0.0339617,VALID,18.8693,VALID,190,VALID,1.41727,
2000-02-12, 02:01:00,VALID,0,VALID,85.3272,VALID,-0.0169808,VALID,18.8591,VALID,205,VALID,1.48972,
2000-02-12, 02:02:00,VALID,0,VALID,85.4506,VALID,0.0169808,VALID,18.8365,VALID,213,VALID,1.02003,
2000-02-12, 02:03:00,VALID,0,VALID,85.4836,VALID,0,VALID,18.8238,VALID,205,VALID,1.27422,
2000-02-12, 02:04:00,VALID,0,VALID,85.5828,VALID,0,VALID,18.8136,VALID,209,VALID,1.38759,
2000-02-12, 02:05:00,VALID,0,VALID,85.5612,VALID,0,VALID,18.8203,VALID,211,VALID,1.14535,
2000-02-12, 02:06:00,VALID,0,VALID,85.5561,VALID,0,VALID,18.8102,VALID,201,VALID,1.07672,
2000-02-12, 02:07:00,VALID,0,VALID,85.6718,VALID,0,VALID,18.8171,VALID,192,VALID,1.04975,
2000-02-12, 02:08:00,VALID,0,VALID,85.6616,VALID,0,VALID,18.8201,VALID,181,VALID,1.34315,
2000-02-12, 02:09:00,VALID,0,VALID,85.7532,VALID,-0.0169808,VALID,18.7873,VALID,173,VALID,1.27871,
2000-02-12, 02:10:00,VALID,0,VALID,85.7405,VALID,0,VALID,18.7906,VALID,184,VALID,1.26172,
2000-02-12, 02:11:00,VALID,0,VALID,85.5803,VALID,0,VALID,18.8134,VALID,194,VALID,1.24363,
2000-02-12, 02:12:00,VALID,0,VALID,85.5396,VALID,-0.0169808,VALID,18.8362,VALID,197,VALID,0.902444,
2000-02-12, 02:13:00,VALID,0,VALID,85.2916,VALID,0.0169808,VALID,18.8651,VALID,206,VALID,1.02138,
2000-02-12, 02:14:00,VALID,0,VALID,85.2662,VALID,-0.0169808,VALID,18.9006,VALID,202,VALID,0.646434,
2000-02-12, 02:15:00,VALID,0,VALID,85.2051,VALID,-0.0169808,VALID,18.9327,VALID,206,VALID,0.725195,
2000-02-12, 02:16:00,VALID,0,VALID,85.111,VALID,-0.0169808,VALID,18.9523,VALID,195,VALID,0.821615,
2000-02-12, 02:17:00,VALID,0,VALID,85.0208,VALID,0,VALID,18.962,VALID,206,VALID,0.606291,
2000-02-12, 02:18:00,VALID,0,VALID,85.111,VALID,0,VALID,18.9779,VALID,228,VALID,0.917067,
2000-02-12, 02:19:00,VALID,0,VALID,85.1721,VALID,0,VALID,18.9749,VALID,236,VALID,1.01419,
2000-02-12, 02:20:00,VALID,0,VALID,85.0233,VALID,0,VALID,18.991,VALID,225,VALID,1.16386,
2000-02-12, 02:21:00,VALID,0,VALID,85.0983,VALID,-0.0169808,VALID,18.9878,VALID,225,VALID,1.20703,
2000-02-12, 02:22:00,VALID,0,VALID,85.1034,VALID,0,VALID,18.9717,VALID,236,VALID,1.28581,
2000-02-12, 02:23:00,VALID,0,VALID,85.1225,VALID,-0.0169808,VALID,18.9779,VALID,233,VALID,0.943873,
2000-02-12, 02:24:00,VALID,0,VALID,85.1403,VALID,-0.0509425,VALID,18.9851,VALID,236,VALID,0.984175,
2000-02-12, 02:25:00,VALID,0,VALID,84.9915,VALID,-0.0339617,VALID,18.9881,VALID,206,VALID,0.765625,
2000-02-12, 02:26:00,VALID,0,VALID,85.167,VALID,-0.0169808,VALID,18.994,VALID,226,VALID,0.894631,
2000-02-12, 02:27:00,VALID,0,VALID,85.5027,VALID,0,VALID,19.0007,VALID,223,VALID,0.601953,
2000-02-12, 02:28:00,VALID,0,VALID,85.4938,VALID,-0.0169808,VALID,18.9843,VALID,233,VALID,0.694661,
2000-02-12, 02:29:00,VALID,0,VALID,85.5383,VALID,-0.0169808,VALID,18.9878,VALID,219,VALID,0.601357,
2000-02-12, 02:30:00,VALID,0,VALID,85.7354,VALID,0,VALID,18.9846,VALID,218,VALID,0.566707,
2000-02-12, 02:31:00,VALID,0,VALID,85.8473,VALID,0,VALID,18.9873,VALID,232,VALID,0.260074,
2000-02-12, 02:32:00,VALID,0,VALID,86.2695,VALID,0,VALID,18.994,VALID,237,VALID,0,
2000-02-12, 02:33:00,VALID,0,VALID,86.314,VALID,0,VALID,19.0102,VALID,237,VALID,0,
2000-02-12, 02:34:00,VALID,0,VALID,86.6637,VALID,-0.0169808,VALID,18.9841,VALID,237,VALID,0,
2000-02-12, 02:35:00,VALID,0,VALID,87.0884,VALID,0,VALID,18.9587,VALID,237,VALID,0.0254934,
2000-02-12, 02:36:00,VALID,0,VALID,87.2588,VALID,-0.0339617,VALID,18.9165,VALID,217,VALID,0.297476,
2000-02-12, 02:37:00,VALID,0,VALID,87.5487,VALID,-0.0169808,VALID,18.8609,VALID,180,VALID,0.487459,
2000-02-12, 02:38:00,VALID,0,VALID,87.522,VALID,0,VALID,18.7839,VALID,158,VALID,0.764423,
2000-02-12, 02:39:00,VALID,0,VALID,87.7394,VALID,-0.0339617,VALID,18.7391,VALID,149,VALID,0.779883,
2000-02-12, 02:40:01,VALID,0,VALID,88.655,VALID,-0.0849042,VALID,18.6752,VALID,131,VALID,0.741753,
2000-02-12, 02:41:01,VALID,0,VALID,89.7168,VALID,-0.118866,VALID,18.5364,VALID,112,VALID,1.06497,
2000-02-12, 02:42:00,VALID,0,VALID,90.4874,VALID,-0.101885,VALID,18.3423,VALID,101,VALID,1.46194,
2000-02-12, 02:43:00,VALID,0,VALID,90.9668,VALID,-0.0849042,VALID,18.2067,VALID,101,VALID,1.37233,
2000-02-12, 02:44:00,VALID,0,VALID,91.2224,VALID,-0.0849042,VALID,18.1327,VALID,103,VALID,1.15124,
2000-02-12, 02:45:00,VALID,0,VALID,91.0939,VALID,-0.101885,VALID,18.1135,VALID,113,VALID,0.84668,
2000-02-12, 02:46:00,VALID,0,VALID,91.1054,VALID,-0.101885,VALID,18.1426,VALID,125,VALID,0.595486,
2000-02-12, 02:47:00,VALID,0,VALID,90.729,VALID,-0.101885,VALID,18.1883,VALID,136,VALID,0.659334,
2000-02-12, 02:48:00,VALID,0,VALID,90.0576,VALID,-0.101885,VALID,18.2618,VALID,151,VALID,0.84375,
2000-02-12, 02:49:00,VALID,0,VALID,89.0962,VALID,-0.118866,VALID,18.3975,VALID,168,VALID,0.91324,
2000-02-12, 02:50:00,VALID,0,VALID,88.697,VALID,-0.101885,VALID,18.5562,VALID,197,VALID,0.840946,
2000-02-12, 02:51:00,VALID,0,VALID,88.0777,VALID,-0.101885,VALID,18.6434,VALID,201,VALID,0.949414,
2000-02-12, 02:52:01,VALID,0,VALID,87.5932,VALID,-0.101885,VALID,18.7336,VALID,207,VALID,0.943576,
2000-02-12, 02:53:00,VALID,0,VALID,87.4368,VALID,-0.101885,VALID,18.8111,VALID,209,VALID,0.511513,
2000-02-12, 02:54:00,VALID,0,VALID,87.6428,VALID,-0.0679233,VALID,18.8563,VALID,216,VALID,0.460737,
2000-02-12, 02:55:00,VALID,0,VALID,88.1171,VALID,0,VALID,18.8487,VALID,218,VALID,0.393298,
2000-02-12, 02:56:00,VALID,0,VALID,88.2392,VALID,0.0169808,VALID,18.8134,VALID,217,VALID,0.528045,
2000-02-12, 02:57:00,VALID,0,VALID,88.1324,VALID,0,VALID,18.7578,VALID,223,VALID,0.525195,
2000-02-12, 02:58:00,VALID,0,VALID,87.4699,VALID,-0.0169808,VALID,18.7386,VALID,223,VALID,0.620226,
2000-02-12, 02:59:00,VALID,0,VALID,87.2562,VALID,0,VALID,18.7322,VALID,228,VALID,0.577097,
2000-02-12, 03:00:00,VALID,0,VALID,87.1621,VALID,0,VALID,18.7481,VALID,228,VALID,0.760417,
2000-02-12, 03:01:00,VALID,0,VALID,87.6314,VALID,0,VALID,18.7617,VALID,205,VALID,0.423725,
2000-02-12, 03:02:00,VALID,0,VALID,87.8831,VALID,0,VALID,18.7518,VALID,222,VALID,0.7502,
2000-02-12, 03:03:01,VALID,0,VALID,88.1858,VALID,0,VALID,18.726,VALID,233,VALID,0.649219,
2000-02-12, 03:04:00,VALID,0,VALID,88.73,VALID,0,VALID,18.674,VALID,234,VALID,0.544488,
2000-02-12, 03:05:00,VALID,0,VALID,88.861,VALID,0,VALID,18.6194,VALID,219,VALID,0.620888,
2000-02-12, 03:06:00,VALID,0,VALID,88.5024,VALID,0,VALID,18.5802,VALID,228,VALID,0.783854,
2000-02-12, 03:07:00,VALID,0,VALID,88.0395,VALID,0,VALID,18.5705,VALID,225,VALID,0.877056,
2000-02-12, 03:08:00,VALID,0,VALID,87.5334,VALID,0,VALID,18.6,VALID,215,VALID,0.915665,
2000-02-12, 03:09:00,VALID,0,VALID,87.2575,VALID,-0.0169808,VALID,18.6455,VALID,223,VALID,0.688281,
2000-02-12, 03:10:00,VALID,0,VALID,86.8849,VALID,-0.118866,VALID,18.6859,VALID,225,VALID,0.650391,
2000-02-12, 03:11:00,VALID,0,VALID,86.7972,VALID,-0.101885,VALID,18.7249,VALID,228,VALID,0.849712,
2000-02-12, 03:12:00,VALID,0,VALID,86.5912,VALID,-0.101885,VALID,18.7438,VALID,238,VALID,0.801282,
2000-02-12, 03:13:00,VALID,0,VALID,86.3,VALID,-0.118866,VALID,18.7532,VALID,224,VALID,0.830798,
2000-02-12, 03:14:01,VALID,0,VALID,86.2135,VALID,-0.0849042,VALID,18.7666,VALID,226,VALID,0.682091,
2000-02-12, 03:15:00,VALID,0,VALID,86.4119,VALID,-0.101885,VALID,18.786,VALID,226,VALID,0.572461,
2000-02-12, 03:16:00,VALID,0,VALID,86.4577,VALID,-0.101885,VALID,18.7825,VALID,224,VALID,0.580295,
2000-02-12, 03:17:00,VALID,0,VALID,86.2122,VALID,-0.0849042,VALID,18.7895,VALID,222,VALID,0.741365,
2000-02-12, 03:18:00,VALID,0,VALID,86.0991,VALID,-0.0849042,VALID,18.7924,VALID,228,VALID,0.461739,
2000-02-12, 03:19:00,VALID,0,VALID,86.2186,VALID,-0.0849042,VALID,18.8312,VALID,230,VALID,0.417352,
2000-02-12, 03:20:00,VALID,0,VALID,86.1118,VALID,-0.101885,VALID,18.8471,VALID,219,VALID,0.383213,
2000-02-12, 03:21:00,VALID,0,VALID,85.9198,VALID,-0.0849042,VALID,18.8637,VALID,218,VALID,0.585352,
2000-02-12, 03:22:00,VALID,0,VALID,85.9872,VALID,-0.101885,VALID,18.8566,VALID,214,VALID,0.650391,
2000-02-12, 03:23:00,VALID,0,VALID,86.1054,VALID,-0.101885,VALID,18.8633,VALID,217,VALID,0.760896,
2000-02-12, 03:24:00,VALID,0,VALID,86.0431,VALID,-0.0679233,VALID,18.8501,VALID,212,VALID,0.853766,
2000-02-12, 03:25:01,VALID,0,VALID,86.0978,VALID,0,VALID,18.8459,VALID,209,VALID,0.781661,
2000-02-12, 03:26:00,VALID,0,VALID,86.169,VALID,0.0169808,VALID,18.8489,VALID,205,VALID,0.959936,
2000-02-12, 03:27:00,VALID,0,VALID,85.9935,VALID,0.0169808,VALID,18.8526,VALID,204,VALID,0.937695,
2000-02-12, 03:28:00,VALID,0,VALID,85.8549,VALID,0,VALID,18.881,VALID,205,VALID,0.955512,
2000-02-12, 03:29:00,VALID,0,VALID,85.4506,VALID,0,VALID,18.9331,VALID,210,VALID,1.18092,
2000-02-12, 03:30:00,VALID,0,VALID,85.1886,VALID,0,VALID,18.9779,VALID,217,VALID,1.0026,
2000-02-12, 03:31:00,VALID,0,VALID,85.1339,VALID,0,VALID,19.036,VALID,213,VALID,0.97389,
2000-02-12, 03:32:00,VALID,0,VALID,85.1377,VALID,0,VALID,19.0561,VALID,218,VALID,0.92508,
2000-02-12, 03:33:00,VALID,0,VALID,85.2636,VALID,0,VALID,19.0656,VALID,211,VALID,0.312891,
2000-02-12, 03:34:00,VALID,0,VALID,85.5116,VALID,0.0339617,VALID,19.0623,VALID,205,VALID,0.175781,
2000-02-12, 03:35:00,VALID,0,VALID,86.7679,VALID,0.0339617,VALID,19.0293,VALID,203,VALID,0.00945724,
2000-02-12, 03:36:01,VALID,0,VALID,87.803,VALID,0,VALID,18.8882,VALID,158,VALID,0.296074,
2000-02-12, 03:37:00,VALID,0,VALID,87.9391,VALID,0.0169808,VALID,18.7004,VALID,59,VALID,0.564145,
2000-02-12, 03:38:00,VALID,0,VALID,87.9238,VALID,0,VALID,18.6521,VALID,12,VALID,0.730769,
2000-02-12, 03:39:00,VALID,0,VALID,88.3206,VALID,0,VALID,18.6519,VALID,65,VALID,0.618555,
2000-02-12, 03:40:00,VALID,0,VALID,88.711,VALID,0,VALID,18.6067,VALID,89,VALID,1.15777,
2000-02-12, 03:41:00,VALID,0,VALID,88.7847,VALID,0,VALID,18.4902,VALID,74,VALID,0.728207,
2000-02-12, 03:42:00,VALID,0,VALID,88.7656,VALID,0,VALID,18.4741,VALID,32,VALID,0.758213,
2000-02-12, 03:43:00,VALID,0,VALID,88.7427,VALID,0.0169808,VALID,18.5068,VALID,340,VALID,0.440173,
2000-02-12, 03:44:00,VALID,0,VALID,88.8737,VALID,0.0169808,VALID,18.5292,VALID,322,VALID,0.504607,
2000-02-12, 03:45:00,VALID,0,VALID,88.9945,VALID,0,VALID,18.4937,VALID,328,VALID,0.350586,
2000-02-12, 03:46:01,VALID,0,VALID,89.2081,VALID,0,VALID,18.4778,VALID,337,VALID,0.434028,
2000-02-12, 03:47:01,VALID,0,VALID,89.535,VALID,0,VALID,18.4554,VALID,358,VALID,0.573808,
2000-02-12, 03:48:00,VALID,0,VALID,89.9813,VALID,0.0339617,VALID,18.3839,VALID,354,VALID,0.366987,
2000-02-12, 03:49:00,VALID,0,VALID,90.3946,VALID,0,VALID,18.3553,VALID,327,VALID,0.105263,
2000-02-12, 03:50:00,VALID,0,VALID,90.8371,VALID,0,VALID,18.3225,VALID,309,VALID,0.146434,
2000-02-12, 03:51:00,VALID,0,VALID,91.0685,VALID,0,VALID,18.2874,VALID,309,VALID,0.0134766,
2000-02-12, 03:52:00,VALID,0,VALID,91.2262,VALID,0.0169808,VALID,18.2482,VALID,309,VALID,0.0972222,
2000-02-12, 03:53:00,VALID,0,VALID,91.3673,VALID,0.0169808,VALID,18.2224,VALID,309,VALID,0.328331,
2000-02-12, 03:54:00,VALID,0,VALID,91.5008,VALID,0,VALID,18.1836,VALID,310,VALID,0.403446,
2000-02-12, 03:55:00,VALID,0,VALID,91.6089,VALID,0,VALID,18.1871,VALID,310,VALID,0.295641,
2000-02-12, 03:56:00,VALID,0,VALID,91.6865,VALID,0.0169808,VALID,18.171,VALID,310,VALID,0.237981,
2000-02-12, 03:57:00,VALID,0,VALID,91.6662,VALID,0,VALID,18.1583,VALID,310,VALID,0.0755859,
2000-02-12, 03:58:01,VALID,0,VALID,91.3915,VALID,-0.0509425,VALID,18.1647,VALID,311,VALID,0.199002,
2000-02-12, 03:59:00,VALID,0,VALID,90.9744,VALID,0,VALID,18.1744,VALID,311,VALID,0.0507813,
2000-02-12, 04:00:00,VALID,0,VALID,91.1677,VALID,0,VALID,18.155,VALID,296,VALID,0.0641026,
2000-02-12, 04:01:00,VALID,0,VALID,91.2071,VALID,0,VALID,18.1225,VALID,263,VALID,0.00555099,
2000-02-12, 04:02:00,VALID,0,VALID,91.5784,VALID,0,VALID,18.0582,VALID,262,VALID,0,
2000-02-12, 04:03:00,VALID,0,VALID,91.9891,VALID,0,VALID,17.9772,VALID,262,VALID,0,
2000-02-12, 04:04:00,VALID,0,VALID,92.101,VALID,-0.0169808,VALID,17.9191,VALID,255,VALID,0,